TimeEST,TemperatureF,Dew PointF,Humidity,Sea Level PressureIn,VisibilityMPH,Wind Direction,Wind SpeedMPH,Gust SpeedMPH,PrecipitationIn,Events,Conditions,WindDirDegrees,DateUTC
12:15 AM,43.2,41.4,93,29.41,4.0,South,3.5,-,0.01,,Drizzle,170,2012-12-21 05:15:00
12:35 AM,43.3,41.7,94,29.41,5.0,Calm,Calm,-,0.01,,Overcast,0,2012-12-21 05:35:00
12:55 AM,42.4,40.8,94,29.39,4.0,SE,3.5,-,0.01,,Mostly Cloudy,130,2012-12-21 05:55:00
1:15 AM,41.0,39.2,93,29.39,2.5,South,3.5,-,N/A,,Scattered Clouds,170,2012-12-21 06:15:00
1:35 AM,41.0,39.4,94,29.38,3.0,Calm,Calm,-,N/A,,Scattered Clouds,0,2012-12-21 06:35:00
1:55 AM,40.6,39.4,95,29.39,2.0,Calm,Calm,-,N/A,,Overcast,0,2012-12-21 06:55:00
2:15 AM,42.4,41.0,95,29.40,5.0,Calm,Calm,-,N/A,,Light Drizzle,0,2012-12-21 07:15:00
2:35 AM,44.1,42.3,93,29.40,10.0,South,4.6,-,N/A,,Overcast,190,2012-12-21 07:35:00
2:55 AM,44.6,39.7,83,29.40,10.0,WSW,10.4,16.1,N/A,,Overcast,240,2012-12-21 07:55:00
3:15 AM,44.6,32.9,64,29.41,10.0,West,13.8,26.5,N/A,,Overcast,260,2012-12-21 08:15:00
3:35 AM,43.9,33.4,67,29.40,10.0,WSW,10.4,-,N/A,,Overcast,250,2012-12-21 08:35:00
3:55 AM,43.3,32.2,65,29.40,10.0,West,12.7,21.9,N/A,,Overcast,280,2012-12-21 08:55:00
4:15 AM,42.8,30.9,63,29.39,10.0,West,13.8,17.3,N/A,,Overcast,260,2012-12-21 09:15:00
4:35 AM,41.4,29.7,63,29.40,10.0,West,13.8,20.7,N/A,,Mostly Cloudy,260,2012-12-21 09:35:00
4:55 AM,41.0,29.3,63,29.39,10.0,West,10.4,20.7,N/A,,Mostly Cloudy,260,2012-12-21 09:55:00
5:15 AM,40.5,27.3,59,29.41,10.0,West,13.8,20.7,N/A,,Mostly Cloudy,260,2012-12-21 10:15:00
5:35 AM,40.1,26.4,58,29.41,10.0,West,9.2,21.9,N/A,,Overcast,270,2012-12-21 10:35:00
5:55 AM,39.9,25.2,56,29.41,10.0,West,9.2,16.1,N/A,,Overcast,260,2012-12-21 10:55:00
6:15 AM,39.7,24.4,54,29.41,10.0,West,15.0,23.0,N/A,,Overcast,270,2012-12-21 11:15:00
6:35 AM,39.7,23.7,53,29.42,10.0,West,13.8,26.5,N/A,,Overcast,260,2012-12-21 11:35:00
6:55 AM,39.4,22.6,51,29.42,10.0,West,15.0,28.8,N/A,,Overcast,260,2012-12-21 11:55:00
7:15 AM,39.0,23.2,53,29.43,10.0,West,9.2,21.9,N/A,,Overcast,260,2012-12-21 12:15:00
7:35 AM,38.7,23.7,55,29.44,10.0,West,11.5,16.1,N/A,,Overcast,260,2012-12-21 12:35:00
7:55 AM,38.3,22.8,54,29.44,10.0,West,11.5,21.9,N/A,,Overcast,260,2012-12-21 12:55:00
8:15 AM,37.8,22.3,54,29.44,10.0,West,13.8,19.6,N/A,,Scattered Clouds,270,2012-12-21 13:15:00
8:35 AM,37.8,22.3,54,29.45,10.0,West,11.5,23.0,N/A,,Mostly Cloudy,270,2012-12-21 13:35:00
8:55 AM,37.8,21.6,52,29.46,10.0,West,12.7,17.3,N/A,,Overcast,260,2012-12-21 13:55:00
9:15 AM,38.1,20.5,49,29.47,10.0,WSW,12.7,19.6,N/A,,Overcast,250,2012-12-21 14:15:00
9:35 AM,38.7,20.3,48,29.48,10.0,West,13.8,23.0,N/A,,Overcast,260,2012-12-21 14:35:00
9:55 AM,38.7,21.7,51,29.48,10.0,WSW,11.5,-,N/A,,Overcast,240,2012-12-21 14:55:00
10:15 AM,38.3,22.3,53,29.48,10.0,West,12.7,18.4,N/A,,Overcast,270,2012-12-21 15:15:00
10:35 AM,39.4,23.2,52,29.49,10.0,WSW,17.3,21.9,N/A,,Overcast,240,2012-12-21 15:35:00
10:55 AM,38.5,21.9,51,29.49,10.0,WSW,13.8,26.5,N/A,,Overcast,250,2012-12-21 15:55:00
11:15 AM,39.4,22.1,50,29.49,10.0,West,12.7,24.2,N/A,,Overcast,270,2012-12-21 16:15:00
11:35 AM,39.0,22.5,52,29.49,10.0,WSW,15.0,24.2,N/A,,Overcast,250,2012-12-21 16:35:00
11:55 AM,37.8,22.1,53,29.48,10.0,WSW,12.7,-,N/A,,Overcast,250,2012-12-21 16:55:00
12:15 PM,37.4,21.4,52,29.49,10.0,West,11.5,21.9,N/A,,Overcast,260,2012-12-21 17:15:00
12:35 PM,37.6,21.0,51,29.48,10.0,WSW,16.1,21.9,N/A,,Overcast,240,2012-12-21 17:35:00
12:55 PM,38.3,20.5,49,29.48,10.0,West,11.5,26.5,N/A,,Overcast,260,2012-12-21 17:55:00
1:15 PM,38.8,20.8,48,29.48,10.0,WSW,16.1,28.8,N/A,,Overcast,250,2012-12-21 18:15:00
1:35 PM,38.5,21.0,50,29.48,10.0,West,12.7,24.2,N/A,,Overcast,260,2012-12-21 18:35:00
1:55 PM,37.8,20.1,49,29.48,10.0,West,13.8,23.0,N/A,,Overcast,270,2012-12-21 18:55:00
2:15 PM,37.8,20.8,51,29.49,10.0,West,12.7,20.7,N/A,,Overcast,260,2012-12-21 19:15:00
2:35 PM,37.4,20.3,50,29.50,10.0,West,12.7,23.0,N/A,,Overcast,260,2012-12-21 19:35:00
2:55 PM,37.0,20.7,52,29.50,10.0,West,11.5,19.6,N/A,,Overcast,260,2012-12-21 19:55:00
3:15 PM,37.4,20.7,51,29.50,10.0,WSW,11.5,21.9,N/A,,Overcast,250,2012-12-21 20:15:00
3:35 PM,37.4,20.1,50,29.51,10.0,WSW,9.2,18.4,N/A,,Overcast,250,2012-12-21 20:35:00
3:55 PM,37.0,20.5,51,29.52,10.0,West,10.4,19.6,N/A,,Overcast,260,2012-12-21 20:55:00
4:15 PM,36.0,21.2,55,29.53,10.0,West,10.4,-,N/A,,Overcast,270,2012-12-21 21:15:00
4:35 PM,35.1,22.3,60,29.54,10.0,WSW,10.4,19.6,N/A,,Overcast,240,2012-12-21 21:35:00
4:55 PM,34.9,22.3,60,29.53,10.0,West,13.8,20.7,N/A,,Overcast,260,2012-12-21 21:55:00
5:15 PM,34.7,22.6,61,29.54,10.0,WSW,12.7,-,N/A,,Overcast,240,2012-12-21 22:15:00
5:35 PM,34.0,23.0,64,29.56,10.0,WSW,10.4,18.4,N/A,,Overcast,240,2012-12-21 22:35:00
5:55 PM,34.0,23.0,64,29.57,10.0,WSW,9.2,-,N/A,,Overcast,240,2012-12-21 22:55:00
6:15 PM,33.8,23.0,65,29.57,10.0,SW,9.2,-,N/A,,Overcast,230,2012-12-21 23:15:00
6:35 PM,33.8,22.1,62,29.57,10.0,SSW,9.2,-,N/A,,Overcast,210,2012-12-21 23:35:00
6:55 PM,34.0,21.7,61,29.58,10.0,SW,5.8,-,N/A,,Overcast,220,2012-12-21 23:55:00
7:15 PM,34.2,20.1,57,29.58,10.0,West,8.1,-,N/A,,Overcast,260,2012-12-22 00:15:00
7:35 PM,35.8,17.6,48,29.59,10.0,WNW,8.1,17.3,N/A,,Overcast,290,2012-12-22 00:35:00
7:55 PM,35.8,17.1,47,29.59,10.0,WNW,17.3,23.0,N/A,,Scattered Clouds,290,2012-12-22 00:55:00
8:15 PM,35.6,17.1,47,29.59,10.0,WNW,18.4,25.3,N/A,,Clear,290,2012-12-22 01:15:00
8:35 PM,35.6,17.4,48,29.61,10.0,WNW,10.4,27.6,N/A,,Scattered Clouds,300,2012-12-22 01:35:00
8:55 PM,35.6,17.4,48,29.62,10.0,West,9.2,17.3,N/A,,Mostly Cloudy,270,2012-12-22 01:55:00
9:15 PM,35.8,17.2,47,29.62,10.0,WNW,12.7,20.7,N/A,,Mostly Cloudy,290,2012-12-22 02:15:00
9:35 PM,35.6,17.8,48,29.64,10.0,WNW,6.9,-,N/A,,Overcast,300,2012-12-22 02:35:00
9:55 PM,36.1,17.1,46,29.64,10.0,WNW,11.5,23.0,N/A,,Overcast,290,2012-12-22 02:55:00
10:15 PM,36.1,16.3,45,29.64,10.0,WNW,13.8,-,N/A,,Overcast,300,2012-12-22 03:15:00
10:35 PM,36.3,16.3,44,29.64,10.0,West,5.8,21.9,N/A,,Overcast,280,2012-12-22 03:35:00
10:55 PM,36.5,16.2,44,29.65,10.0,WNW,9.2,-,N/A,,Overcast,300,2012-12-22 03:55:00
11:15 PM,36.9,16.2,43,29.66,10.0,WNW,8.1,21.9,N/A,,Overcast,290,2012-12-22 04:15:00
11:35 PM,36.7,16.2,43,29.66,10.0,West,5.8,-,N/A,,Overcast,280,2012-12-22 04:35:00
11:55 PM,36.5,16.2,44,29.66,10.0,West,8.1,-,N/A,,Overcast,280,2012-12-22 04:55:00